FLOCK 2E'-9

Last updated on Tue Mar 13 2018 00:16:34 GMT+0000 (Coordinated Universal Time)

1 41575U 98067JZ 18070.94679928 .20696072 12478-4 12063-2 0 9994 2 41575 51.6104 58.7875 0003218 307.0775 52.9851 16.41747452102008

Satellite not in orbit